#timestamp,LO_Frequency,Hit 
1501693215.5,286046979.4,N
1501693235.3,286046979.4,N
1501693255.1,286046979.9,N
1501693275.9,286046979.8,N
1501693295.7,286046979.2,N
1501693315.5,286046978.9,N
1501693335.4,286046982.0,N
1501693355.2,286046981.7,N
1501693375.0,286046981.5,N
1501693375.9,286046981.5,N
1501693395.8,286046981.8,N
1501693415.6,286046983.5,N
1501693435.4,286046982.4,N
1501693455.3,286046984.6,N
1501693475.1,286046984.9,N
1501693476.0,286046984.9,N
1501693495.8,286046986.7,N
1501693515.7,286046986.8,N
1501693535.5,286046986.5,N
1501693555.3,286046984.3,N
1501693575.2,286046988.4,N
1501693595.9,286046986.0,N
1501693615.7,286046986.4,N
1501693635.5,286046986.4,N
1501693655.4,286046984.0,N
1501693675.2,286046984.0,N
1501693695.0,286046983.8,N
1501693695.9,286046983.8,N
1501693715.8,286046986.4,N
1501693735.6,286046986.1,N
1501693755.4,286046985.5,N
1501693775.3,286046989.4,N
1501693795.1,286046991.4,N
1501693796.0,286046991.4,N
1501693815.8,286046992.5,N
1501693835.7,286046994.6,N
1501693855.5,286046997.6,N
1501693875.3,286046997.7,N
1501693895.2,286046995.0,N
1501693915.9,286046995.5,N
1501693935.7,286046995.2,N
1501693955.5,286046995.7,N
1501693975.4,286046993.5,N
1501693995.2,286046993.3,N
1501694015.0,286046991.9,N
1501694015.9,286046991.9,N
1501694035.8,286046994.6,N
1501694055.6,286046992.5,N
1501694075.4,286046990.4,N
1501694095.3,286046993.0,N
1501694115.1,286046990.8,N
1501694116.0,286046990.8,N
1501694135.8,286046990.2,N
1501694155.7,286046990.8,N
1501694175.5,286046990.7,N
1501694195.3,286046990.9,N
1501694215.1,286046989.1,N
1501694235.9,286046991.2,N
1501694255.7,286046989.1,N
1501694275.5,286046989.2,N
1501694295.4,286046990.5,N
1501694315.2,286046992.7,N
1501694335.0,286046993.2,N
1501694335.9,286046993.2,N
1501694355.8,286046990.2,N
1501694375.6,286046990.3,N
1501694395.4,286046992.8,N
1501694415.3,286046990.9,N
1501694435.1,286046993.0,N
1501694436.0,286046993.0,N
1501694455.8,286046991.3,N
1501694475.7,286046990.0,N
1501694495.5,286046985.7,N
1501694515.3,286046990.0,N
1501694535.1,286046988.3,N
1501694555.9,286046986.1,N
1501694575.7,286046985.5,N
1501694595.5,286046987.4,N
1501694615.4,286046985.6,N
1501694635.2,286046987.6,N
1501694655.0,286046988.9,N
1501694655.9,286046988.9,N
1501694675.8,286046993.0,N
1501694695.6,286046992.0,N
1501694715.4,286046996.4,N
1501694735.3,286046995.4,N
1501694755.1,286046995.5,N
1501694756.0,286046995.5,N
1501694775.8,286046995.1,N
1501694795.7,286046998.0,N
1501694815.5,286046997.6,N
1501694835.3,286046997.6,N
1501694855.1,286046997.6,N
1501694875.9,286046997.8,N
1501694895.7,286046998.0,N
1501694915.5,286046999.5,N
1501694935.4,286046997.7,N
1501694955.2,286046998.8,N
1501694975.0,286046995.1,N
1501694975.9,286046995.1,N
1501694995.8,286046998.0,N
1501695015.6,286046995.9,N
1501695035.4,286046994.9,N
1501695055.3,286046997.3,N
1501695075.1,286046997.7,N
1501695076.0,286046997.7,N
1501695095.8,286046997.2,N
1501695115.7,286046996.6,N
1501695135.5,286046996.5,N
1501695155.3,286046997.7,N
1501695175.1,286046997.0,N
1501695195.9,286046997.2,N
1501695215.7,286046997.6,N
1501695235.5,286046996.4,N
1501695255.4,286046996.4,N
1501695275.2,286046992.1,N
1501695295.0,286046992.0,N
1501695295.9,286046992.0,N
1501695315.8,286046993.9,N
1501695335.6,286046996.3,N
1501695355.4,286046994.4,N
1501695375.3,286046993.6,N
1501695395.1,286046994.7,N
1501695396.0,286046994.7,N
1501695415.8,286046993.0,N
1501695435.7,286046991.0,N
1501695455.5,286046993.0,N
1501695475.3,286046991.9,N
1501695495.1,286046994.6,N
1501695515.9,286046994.7,N
1501695535.7,286046995.0,N
1501695555.5,286046993.6,N
1501695575.4,286046992.2,N
1501695595.2,286046992.8,N
1501695615.0,286046994.6,N
1501695615.9,286046994.6,N
1501695635.8,286046994.3,N
1501695655.6,286046994.0,N
1501695675.4,286046993.5,N
1501695695.3,286046994.4,N
1501695715.1,286046993.6,N
1501695716.0,286046993.6,N
1501695735.8,286046995.6,N
1501695755.6,286046995.0,N
1501695775.5,286046997.3,N
1501695795.3,286046997.8,N
1501695815.1,286046997.8,N
1501695835.9,286046996.1,N
1501695855.7,286046995.9,N
1501695875.5,286046996.7,N
1501695895.4,286046995.6,N
1501695915.2,286046995.1,N
1501695935.0,286046995.9,N
1501695935.9,286046995.9,N
1501695955.8,286046993.8,N
1501695975.6,286046992.5,N
1501695995.4,286046994.2,N
1501696015.2,286046994.1,N
1501696035.1,286046994.4,N
1501696036.0,286046994.4,N
1501696055.8,286046993.5,N
1501696075.6,286046995.7,N
1501696095.5,286046995.3,N
1501696115.3,286046996.7,N
1501696135.1,286046999.2,N
1501696155.9,286046996.9,N
1501696175.7,286046997.6,N
1501696195.5,286046994.9,N
1501696215.4,286046998.9,N
1501696235.2,286046995.5,N
1501696255.0,286046995.3,N
1501696255.9,286046995.3,N
1501696275.8,286046995.6,N
1501696295.6,286046995.8,N
1501696315.4,286046994.9,N
1501696335.2,286046995.3,N
1501696355.1,286046997.4,N
1501696356.0,286046997.4,N
1501696375.8,286046995.1,N
1501696395.6,286046995.6,N
1501696415.5,286046995.4,N
1501696435.3,286046998.0,N
1501696455.1,286046997.9,N
1501696475.9,286046994.9,N
1501696495.7,286046997.5,N
1501696515.5,286046997.5,N
1501696535.4,286046997.6,N
1501696555.2,286046997.4,N
1501696575.0,286046995.2,N
1501696575.9,286046995.2,N
1501696595.7,286046997.7,N
1501696615.6,286046996.8,N
1501696635.4,286046996.7,N
1501696655.2,286046996.9,N
1501696675.1,286046999.3,N
1501696676.0,286046999.3,N
1501696695.8,286047000.8,N
1501696715.6,286046998.2,N
1501696735.5,286046998.7,N
1501696755.3,286047002.5,N
1501696775.1,286047003.1,N
1501696795.9,286047001.7,N
